Tracking 31011 objects as of 13-Jul-2025
HD Live streaming from Space Station
objects crossing your sky now

CZ-6A DEB

Track CZ-6A DEB now!
10-day predictions


NORAD ID: 55207
Int'l Code: 2022-151VY
Perigee: 620.3 km
Apogee: 731.1 km
Inclination: 98.7 °
Period: 98.1 minutes
Semi major axis: 7046 km
RCS: Unknown
Launch date: November 11, 2022
Source: People's Republic of China (PRC)
Launch site: Taiyaun Space Center, China (TSC)

Note: This is SATELLITE DEBRIS
Your satellite tracking list
Your tracking list is empty




NASA's NSSDC Master Catalog

Two Line Element Set (TLE):
1 55207U 22151VY  25193.59301798  .00007770  00000-0  13126-2 0  9998
2 55207  98.6562 242.3587 0078641 243.9299 115.3794 14.67663733135669
Source of the keplerian elements: AFSPC